Temperature
32 32 32 32 33 33 33 32 32 33 34 34 33 32 32 32 31 30 29 28 27 26 25 24 23 23 22 21 20 20 20 20 20 20 20 19 19 19 19 19 19 19 19 19
32 32 33 34 34 34 33 33 33 34 34 34 32 32 33 32 31 30 30 28 28 27 26 25 24 23 22 21 20 20 20 20 20 20 20 20 19 19 19 19 19 19 19 19
32 33 34 34 34 33 33 33 33 33 33 34 32 31 32 32 32 31 30 29 28 27 26 25 24 23 22 21 21 21 20 20 20 20 19 20 20 19 19 19 19 19 19 19
33 34 34 34 34 34 33 34 34 33 32 32 31 30 31 32 31 31 31 30 29 28 27 25 24 23 23 22 21 21 20 20 20 20 20 20 20 19 19 19 19 19 19 19
33 34 33 33 34 34 34 34 34 33 32 32 32 31 31 32 31 31 31 31 30 28 27 26 25 24 23 22 22 21 21 20 20 20 20 20 20 20 20 19 19 19 19 19
33 34 34 34 35 35 35 34 33 33 32 30 32 32 31 32 32 32 31 31 30 29 28 26 25 24 23 23 22 21 21 21 20 20 20 20 20 20 20 20 19 19 19 19
32 33 34 34 34 34 34 32 30 30 29 30 32 32 32 33 33 33 32 31 30 29 28 27 25 24 24 23 22 22 21 21 21 20 20 20 20 20 20 20 19 19 19 19
31 32 33 34 33 33 33 32 30 28 28 30 32 31 32 34 34 33 32 31 30 29 28 27 26 25 24 23 23 22 21 21 21 20 20 20 20 20 20 20 19 19 19 19
32 32 34 34 34 34 33 32 32 30 29 29 30 31 32 34 34 33 32 30 30 29 28 27 26 25 24 24 23 22 22 21 21 21 20 20 20 20 20 20 19 19 19 19
32 31 33 34 34 34 34 33 32 30 28 28 29 30 31 31 32 32 31 30 29 29 28 27 26 25 24 24 23 22 22 21 21 21 21 20 20 20 20 20 19 19 19 19
32 31 32 33 32 33 33 33 32 31 30 29 28 30 32 31 31 31 31 30 29 28 28 27 26 25 25 24 23 22 22 21 21 21 21 20 20 20 20 20 19 19 19 19
31 31 30 31 33 34 33 33 32 31 29 29 29 30 33 32 32 31 30 29 29 28 28 27 26 25 25 24 23 23 22 21 21 21 21 20 20 20 20 20 19 19 19 19
30 30 29 30 31 33 32 33 33 32 31 30 30 30 32 32 32 31 30 29 28 28 27 27 26 25 25 24 23 23 22 22 21 21 20 20 20 20 20 19 19 19 19 19
29 30 29 29 30 31 31 32 33 32 31 31 30 30 31 31 31 31 30 29 28 27 27 26 25 25 24 24 23 23 22 22 21 21 20 20 20 20 19 19 19 19 19 19
30 29 30 30 31 32 32 32 32 32 32 31 30 30 30 30 30 30 29 28 28 27 26 26 25 24 24 23 23 23 22 22 22 21 21 20 20 20 19 19 19 19 19 18
30 29 29 29 31 31 31 31 32 32 32 31 31 30 31 30 30 29 28 28 27 26 26 25 24 24 23 23 22 22 22 21 21 21 21 20 20 19 19 19 19 18 18 18
29 28 27 28 30 30 30 31 31 32 32 32 30 30 30 30 29 29 28 27 26 26 25 24 24 23 23 22 22 22 21 21 21 20 20 20 19 19 19 18 18 18 18 18
27 27 27 28 28 27 30 32 32 32 31 32 31 31 30 29 28 28 27 27 26 25 24 24 23 23 23 22 22 21 21 21 20 20 20 19 19 19 18 18 18 18 17 17
28 27 26 27 27 28 30 32 32 31 30 31 30 30 29 28 28 27 26 26 25 24 24 23 23 22 22 22 21 21 20 20 20 20 19 19 19 18 18 18 17 17 17 17
28 27 26 26 26 27 29 31 31 31 29 30 29 29 28 28 27 26 25 24 24 23 23 22 22 22 21 21 21 20 20 19 19 19 19 19 18 18 18 18 17 17 17 17
26 26 26 26 26 28 29 30 30 28 27 28 28 27 27 26 26 25 24 23 23 22 22 21 21 21 21 20 20 20 19 19 19 18 18 18 18 17 17 17 17 17 16 16
26 26 25 26 25 26 28 28 27 25 26 26 26 26 25 25 24 24 23 22 22 21 21 21 20 20 20 20 19 19 19 18 18 18 17 17 17 17 17 17 16 16 16 16
26 26 27 26 26 25 26 26 25 25 25 25 25 25 24 24 24 23 22 21 21 21 20 20 20 19 19 19 19 18 18 18 18 17 17 17 17 16 16 16 16 16 16 15
26 26 26 25 25 25 25 24 24 24 24 24 24 24 24 23 23 22 21 21 20 20 19 19 19 18 18 18 18 18 17 17 17 17 16 16 16 16 16 15 15 15 15 15
24 24 24 24 24 25 24 24 24 24 24 24 23 23 23 23 22 21 20 20 19 19 19 18 18 18 17 17 17 17 17 17 16 16 16 16 16 16 15 15 15 15 15 15
23 23 23 23 23 23 23 23 23 23 23 22 22 22 22 21 21 20 19 19 19 18 18 18 17 17 17 17 17 16 16 16 16 16 16 16 15 15 15 15 15 15 15 14
Wind_Speed
12 11 11 9 6 7 6 6 4 0 1 2 3 6 9 10 10 11 11 11 11 12 13 13 13 13 12 10 8 7 6 5 3 2 2 2 2 2 2 3 4 3 2 1
13 14 12 8 7 8 8 7 5 2 1 3 2 3 8 10 9 10 11 12 12 13 14 13 13 12 12 11 9 8 7 6 5 3 2 2 2 2 2 2 3 3 3 2
16 10 9 9 10 9 8 7 6 5 6 5 3 4 6 10 10 11 12 12 13 14 15 15 13 12 12 11 11 9 7 6 6 5 3 2 2 1 1 3 2 2 2 2
14 12 11 11 11 10 9 7 7 7 8 5 5 5 7 9 11 12 12 13 13 14 15 15 14 13 12 12 11 9 8 6 6 5 4 4 4 3 3 3 3 3 2 2
13 11 13 13 11 10 9 8 9 9 9 10 8 5 5 9 11 11 11 12 13 15 15 15 15 13 12 12 11 10 8 7 6 5 5 3 3 3 2 3 3 3 3 2
14 13 13 13 12 12 10 10 9 10 9 11 8 5 4 5 7 10 10 9 11 13 14 14 14 12 11 11 10 11 9 7 6 6 5 4 3 2 2 2 3 4 3 2
14 15 14 13 13 12 11 9 6 7 7 8 6 4 2 5 5 7 10 10 10 12 12 14 14 14 11 11 11 10 10 8 7 6 5 5 4 4 4 3 4 3 2 2
12 12 12 12 13 11 11 11 9 7 7 6 5 4 4 6 6 7 8 10 11 11 11 12 13 13 12 11 11 10 10 9 8 7 6 5 5 4 3 4 3 2 2 2
10 10 10 11 12 13 11 10 10 9 10 9 5 2 5 6 7 8 9 10 11 11 12 12 12 12 11 10 9 10 10 9 9 8 6 5 5 4 3 3 3 2 2 2
12 11 11 12 13 13 14 12 9 8 6 8 7 4 3 5 5 5 7 8 9 10 11 10 10 11 11 11 9 9 9 9 8 8 8 7 6 5 4 3 4 3 2 1
13 13 12 10 11 11 11 12 9 7 7 8 7 3 2 5 6 5 6 7 8 8 10 11 10 10 10 10 10 10 9 9 8 8 7 6 6 6 5 5 4 3 3 3
11 11 11 12 11 11 12 11 11 8 7 8 7 4 2 4 6 6 6 6 7 8 8 9 9 9 9 9 9 9 8 9 8 7 7 6 5 5 5 5 5 4 4 4
6 9 10 12 11 12 12 12 12 12 10 9 8 3 3 2 4 6 7 7 6 6 6 8 8 8 7 7 7 8 8 8 8 7 7 6 6 6 5 5 4 4 4 4
6 10 12 13 10 9 12 13 13 13 11 9 7 5 3 1 3 5 6 6 6 6 6 6 6 5 5 5 5 6 7 7 7 7 7 6 6 6 5 5 4 4 4 4
8 12 14 15 16 14 12 13 15 15 12 10 6 5 5 2 2 5 6 6 6 5 5 5 5 5 4 4 4 4 5 5 5 6 6 6 6 5 4 4 4 4 4 5
8 11 13 15 17 16 14 15 16 14 12 11 8 7 4 1 2 4 4 5 5 5 4 4 4 4 4 4 3 3 3 4 4 4 4 4 5 5 4 4 4 4 4 3
8 10 13 15 15 16 17 15 14 11 10 9 8 6 4 2 2 3 4 5 4 3 3 3 2 3 3 4 3 3 3 3 4 4 4 4 4 4 4 4 3 3 3 3
10 9 9 14 13 17 13 10 10 10 8 6 3 3 3 3 2 2 3 4 3 3 3 2 2 2 3 3 4 3 3 3 4 4 4 3 3 4 3 3 3 3 2 3
12 9 9 11 15 16 13 9 8 8 6 4 2 0 1 2 2 3 3 3 3 3 2 2 2 2 2 1 2 3 3 3 4 4 3 3 3 4 4 3 3 2 2 2
13 10 11 12 14 14 8 6 5 7 7 1 1 1 1 0 2 1 3 3 3 3 2 2 1 1 2 2 2 3 3 3 3 3 3 4 4 4 4 4 3 2 2 2
14 13 15 16 15 11 6 6 6 8 2 3 3 2 2 2 2 3 3 3 3 3 3 2 1 2 2 2 2 2 2 2 2 2 2 3 3 4 4 3 3 3 2 2
13 13 13 14 16 10 4 4 2 2 4 4 3 3 3 2 3 2 3 3 2 3 3 3 2 2 3 2 2 2 2 2 3 2 3 3 2 3 4 3 3 3 3 3
11 9 8 8 6 1 3 3 2 2 2 3 3 2 1 1 1 2 2 2 2 2 3 3 4 4 3 2 2 2 2 3 4 4 3 3 3 2 2 3 3 3 2 2
8 5 6 5 4 1 1 3 4 3 2 3 2 1 1 1 1 2 2 2 1 2 2 3 3 3 3 3 3 3 3 3 4 4 3 3 3 3 3 2 2 2 1 1
6 4 7 7 5 4 1 2 3 4 4 3 2 2 2 1 1 1 2 2 2 2 2 2 3 3 3 3 3 3 3 3 3 3 3 3 3 4 3 3 2 2 1 1
8 7 6 4 3 3 3 4 4 4 4 3 2 2 2 1 1 2 2 2 2 2 2 2 2 3 3 2 2 2 2 3 3 3 2 2 3 3 4 4 3 4 3 2
Wind_Direction
234 238 243 243 242 258 270 278 285 218 170 208 188 171 164 176 176 170 173 173 173 169 163 160 160 158 155 151 153 156 159 150 160 166 174 184 165 174 158 145 141 143 152 128
241 238 242 247 252 256 260 267 270 223 211 248 238 209 177 179 183 179 178 175 173 166 161 161 164 164 161 158 159 160 168 168 178 179 186 195 173 175 150 128 134 147 153 174
237 243 238 245 254 257 262 272 279 288 272 257 266 245 200 186 179 181 182 177 175 171 167 167 169 168 166 165 169 175 170 171 179 190 193 190 173 174 146 142 137 154 168 160
243 243 247 246 249 257 260 270 270 262 274 271 228 243 208 191 181 185 184 179 178 174 170 169 173 174 172 172 171 165 165 173 178 194 204 203 183 181 179 160 155 169 181 172
247 243 249 250 253 257 269 276 274 272 272 273 247 242 205 188 186 185 188 183 178 175 173 171 174 175 175 174 171 164 162 172 180 194 199 209 203 191 175 164 164 173 179 185
254 251 248 253 256 254 259 269 274 271 263 262 258 254 203 195 180 177 180 181 173 167 169 167 169 167 173 173 171 164 162 171 180 193 196 199 203 204 192 193 185 196 187 185
241 244 244 245 251 245 248 257 264 266 253 250 243 246 199 144 157 170 173 170 163 163 165 166 167 169 173 175 174 167 166 173 183 191 197 196 202 207 202 217 216 218 195 182
238 234 232 236 245 248 244 246 252 260 276 284 255 229 169 149 162 147 145 152 161 165 164 166 167 169 174 178 174 169 169 175 182 189 192 197 204 213 208 217 231 211 218 188
255 245 236 236 244 246 247 244 252 257 270 276 266 229 156 151 151 141 141 148 159 166 170 167 166 168 170 175 175 172 168 173 182 187 187 191 197 218 219 204 216 222 215 205
265 274 257 229 235 234 244 255 255 248 263 271 268 250 196 143 136 134 140 143 151 165 166 160 166 169 170 175 175 172 171 173 178 184 192 197 198 208 208 211 217 216 208 192
255 262 266 245 229 236 233 245 259 272 263 263 273 279 147 146 145 143 142 145 161 171 168 164 167 166 168 172 175 177 172 175 182 188 191 194 188 198 203 208 219 214 201 197
247 254 262 259 249 243 242 240 247 255 263 271 266 256 134 124 138 140 139 151 167 166 161 163 160 161 166 173 176 175 177 182 187 188 186 191 189 193 199 206 205 202 202 209
269 253 252 248 243 226 235 240 245 254 256 254 262 241 148 103 114 128 136 141 143 145 151 155 156 159 166 170 171 175 180 185 187 186 186 187 193 193 197 206 197 192 202 209
272 256 255 257 255 251 238 242 248 255 258 255 247 247 255 176 124 121 121 125 136 137 140 147 141 138 145 153 160 171 186 187 189 186 188 186 194 197 196 202 203 200 206 211
252 256 259 262 266 268 253 249 246 247 258 265 259 249 247 231 137 125 130 140 143 138 139 135 134 136 141 146 162 178 184 184 188 186 191 191 190 193 188 196 201 201 205 212
247 265 270 263 262 263 262 259 257 246 243 245 242 242 232 201 107 117 132 145 143 147 146 138 136 146 155 162 176 179 185 181 175 183 187 175 179 187 190 196 197 201 200 206
250 256 267 266 262 262 253 247 254 254 251 245 242 229 208 177 158 151 156 146 144 149 134 128 139 158 168 175 171 176 176 169 165 169 171 169 178 187 193 196 190 203 205 203
247 257 258 262 262 255 256 252 247 253 262 266 240 192 183 133 99 96 121 130 135 133 133 132 145 150 169 179 172 163 163 163 167 168 176 175 177 182 177 180 184 193 195 194
241 243 254 260 254 250 257 256 238 241 252 277 277 187 137 126 143 108 90 95 121 120 109 122 145 156 135 134 152 154 160 159 168 173 177 177 181 178 176 184 180 178 183 188
233 227 239 253 260 259 251 262 277 256 238 275 26 71 92 33 211 114 81 77 83 89 97 105 124 113 124 126 129 150 161 155 162 174 178 174 171 173 173 176 173 171 178 178
220 222 231 245 253 255 285 293 271 247 252 15 33 54 56 48 38 81 82 83 98 105 102 97 110 112 100 106 124 134 148 157 152 151 156 163 170 169 158 159 161 161 174 173
233 227 228 239 247 250 333 294 304 29 35 22 30 59 66 57 75 75 93 103 108 118 114 114 110 106 100 105 125 137 139 125 115 117 125 128 137 160 155 158 165 171 175 178
242 242 240 242 244 48 19 41 41 43 30 347 343 30 72 95 123 119 109 104 114 96 104 100 103 95 98 120 144 150 123 116 121 122 122 120 119 116 128 145 153 163 176 196
246 257 262 264 211 211 66 47 7 348 333 308 332 343 313 259 177 140 139 125 106 91 108 107 108 105 89 89 101 120 116 108 115 126 135 142 137 129 117 120 126 131 149 187
294 264 254 257 268 269 296 346 330 334 330 329 333 303 304 273 190 162 152 140 127 109 105 111 116 110 98 92 103 108 119 130 139 146 152 151 139 131 121 111 95 120 106 153
274 269 267 262 303 301 303 322 317 320 314 319 329 338 332 297 132 133 130 109 114 127 114 113 120 116 110 102 106 100 119 137 146 155 165 171 161 147 146 142 126 64 91 111
Height
1482 1484 1483 1479 1475 1476 1477 1480 1481 1476 1470 1473 1477 1480 1481 1485 1488 1492 1497 1500 1504 1508 1512 1515 1519 1521 1523 1525 1527 1528 1530 1531 1532 1534 1535 1536 1537 1538 1538 1539 1539 1539 1540 1540
1480 1481 1473 1471 1471 1472 1475 1478 1478 1472 1468 1472 1477 1479 1477 1480 1484 1489 1493 1497 1501 1506 1510 1514 1517 1520 1522 1524 1526 1528 1529 1530 1532 1533 1534 1536 1537 1537 1538 1538 1538 1539 1539 1540
1480 1474 1469 1471 1472 1474 1475 1477 1477 1477 1472 1470 1478 1486 1479 1478 1481 1486 1490 1494 1498 1502 1507 1511 1515 1518 1521 1523 1524 1527 1528 1530 1531 1532 1534 1536 1536 1537 1538 1538 1538 1539 1539 1539
1471 1468 1468 1470 1472 1471 1477 1469 1470 1474 1479 1483 1482 1500 1483 1477 1479 1482 1485 1490 1494 1499 1504 1508 1512 1516 1519 1521 1523 1525 1527 1529 1530 1532 1533 1535 1535 1536 1537 1537 1538 1538 1539 1539
1471 1467 1469 1471 1468 1467 1470 1466 1467 1469 1476 1482 1476 1487 1484 1473 1478 1479 1481 1485 1490 1495 1500 1505 1509 1513 1517 1520 1522 1523 1525 1527 1529 1530 1532 1533 1535 1536 1537 1537 1537 1538 1538 1538
1467 1464 1464 1465 1464 1463 1464 1467 1469 1471 1477 1494 1479 1484 1486 1473 1473 1474 1478 1482 1486 1492 1497 1502 1507 1511 1515 1518 1521 1522 1524 1525 1527 1529 1531 1532 1533 1534 1535 1536 1536 1536 1537 1537
1471 1465 1461 1462 1465 1463 1465 1479 1496 1501 1502 1495 1472 1479 1479 1465 1465 1469 1473 1479 1484 1490 1495 1500 1504 1509 1512 1515 1518 1520 1522 1523 1525 1527 1529 1530 1531 1532 1533 1534 1535 1535 1536 1536
1476 1475 1461 1460 1464 1468 1467 1475 1499 1514 1511 1495 1477 1480 1470 1459 1463 1467 1472 1477 1483 1489 1493 1498 1502 1506 1510 1513 1516 1518 1520 1521 1524 1525 1527 1528 1529 1530 1531 1532 1533 1534 1534 1534
1471 1471 1456 1456 1458 1461 1468 1472 1470 1487 1495 1501 1488 1477 1465 1459 1462 1466 1472 1477 1483 1488 1492 1496 1500 1504 1507 1511 1514 1516 1518 1519 1521 1523 1524 1526 1527 1528 1530 1530 1531 1532 1532 1533
1464 1473 1459 1454 1456 1456 1459 1462 1471 1484 1506 1512 1497 1484 1478 1468 1468 1468 1472 1477 1482 1487 1490 1494 1499 1502 1505 1508 1511 1514 1516 1517 1519 1521 1522 1524 1525 1526 1527 1528 1529 1530 1530 1530
1463 1472 1466 1458 1461 1463 1462 1464 1467 1473 1481 1501 1507 1492 1463 1465 1466 1469 1473 1477 1481 1486 1489 1493 1496 1500 1503 1506 1509 1512 1514 1515 1517 1518 1520 1521 1522 1524 1525 1525 1526 1527 1527 1528
1462 1467 1473 1464 1453 1452 1455 1461 1466 1482 1488 1486 1494 1488 1459 1461 1465 1469 1472 1478 1482 1484 1487 1491 1494 1498 1501 1504 1507 1509 1511 1513 1514 1516 1517 1519 1520 1521 1522 1523 1523 1524 1525 1525
1465 1470 1482 1477 1467 1456 1457 1456 1458 1462 1472 1481 1488 1484 1460 1462 1465 1469 1473 1477 1480 1483 1487 1490 1493 1496 1499 1502 1505 1507 1509 1511 1512 1514 1515 1516 1517 1518 1519 1520 1521 1521 1522 1523
1467 1469 1476 1483 1472 1461 1462 1458 1457 1462 1470 1476 1477 1476 1466 1464 1466 1469 1472 1476 1480 1484 1486 1489 1492 1494 1497 1500 1502 1505 1507 1509 1510 1511 1512 1513 1514 1515 1516 1517 1518 1519 1520 1520
1464 1470 1467 1464 1458 1455 1457 1458 1456 1459 1461 1469 1471 1472 1469 1466 1467 1469 1473 1477 1480 1483 1486 1489 1491 1493 1496 1498 1500 1503 1504 1506 1507 1508 1509 1510 1511 1513 1514 1515 1516 1516 1517 1517
1464 1469 1469 1468 1459 1456 1458 1455 1454 1453 1454 1460 1464 1468 1463 1466 1468 1471 1474 1477 1480 1483 1486 1488 1490 1492 1494 1496 1498 1499 1501 1503 1504 1505 1506 1507 1508 1509 1511 1512 1513 1513 1514 1514
1465 1471 1475 1473 1461 1459 1464 1454 1453 1452 1449 1454 1463 1464 1462 1464 1468 1471 1474 1477 1480 1482 1485 1487 1489 1490 1492 1493 1495 1497 1498 1499 1501 1502 1503 1504 1505 1506 1507 1509 1510 1510 1511 1512
1469 1472 1474 1473 1472 1481 1458 1442 1444 1448 1449 1450 1454 1457 1461 1465 1469 1471 1474 1477 1480 1482 1484 1486 1487 1488 1490 1491 1493 1494 1495 1496 1497 1499 1500 1501 1502 1503 1504 1505 1506 1507 1508 1509
1463 1470 1475 1474 1474 1467 1452 1443 1444 1450 1455 1452 1455 1458 1462 1465 1468 1472 1475 1477 1480 1481 1483 1484 1486 1487 1488 1489 1490 1491 1492 1493 1494 1495 1496 1498 1499 1500 1501 1502 1503 1504 1505 1506
1460 1464 1474 1474 1478 1475 1458 1445 1445 1449 1459 1455 1456 1459 1463 1465 1469 1474 1476 1477 1479 1480 1481 1483 1484 1485 1485 1486 1488 1489 1489 1490 1491 1492 1494 1495 1496 1497 1497 1498 1500 1501 1502 1503
1463 1467 1471 1473 1474 1461 1451 1446 1448 1463 1465 1458 1459 1462 1465 1468 1471 1475 1475 1477 1478 1479 1480 1481 1482 1483 1484 1484 1486 1486 1487 1488 1489 1490 1491 1492 1493 1494 1495 1496 1497 1499 1500 1501
1459 1463 1467 1468 1472 1468 1453 1451 1457 1462 1461 1461 1462 1464 1467 1470 1472 1474 1475 1476 1478 1478 1479 1480 1480 1481 1482 1483 1484 1484 1485 1486 1487 1488 1489 1489 1490 1492 1492 1493 1495 1496 1497 1498
1453 1454 1455 1458 1462 1458 1457 1457 1460 1461 1463 1464 1464 1466 1468 1470 1471 1473 1475 1476 1477 1478 1479 1479 1479 1480 1481 1482 1482 1483 1484 1484 1485 1486 1486 1487 1488 1489 1490 1491 1492 1493 1495 1496
1451 1451 1453 1457 1456 1457 1458 1459 1462 1463 1464 1465 1465 1466 1467 1469 1470 1472 1474 1476 1477 1477 1478 1478 1479 1479 1479 1480 1481 1481 1482 1483 1483 1484 1485 1486 1487 1488 1489 1490 1491 1492 1493 1494
1455 1455 1454 1456 1457 1458 1459 1460 1462 1463 1463 1464 1465 1466 1467 1468 1469 1471 1473 1474 1475 1476 1477 1477 1477 1477 1478 1479 1479 1479 1480 1481 1482 1483 1484 1485 1486 1486 1487 1488 1489 1491 1492 1493
1456 1457 1458 1458 1458 1459 1461 1461 1462 1462 1464 1464 1465 1465 1466 1467 1468 1470 1472 1473 1474 1475 1475 1476 1476 1476 1476 1477 1477 1478 1479 1480 1481 1482 1483 1484 1485 1485 1486 1487 1488 1489 1490 1491